Marrakech, Morocco

11:38 AM WET on February 28, 2017 (GMT +0000)
Marrakech

Weather History for GMMX - April, 2014

Change the Weather History Date:

Wednesday, April 30, 2014

  Actual Average Record
Temperature  
Mean Temperature 74 °F -  
Max Temperature 90 °F 81 °F 96 °F (1997)
Min Temperature 59 °F 57 °F 51 °F (2007)
Cooling Degree Days 10    
Growing Degree Days 24 (Base 50)    
Moisture  
Dew Point 52 °F    
Average Humidity 48    
Maximum Humidity 77    
Minimum Humidity 9    
Precipitation  
Precipitation 0.00 in 0.03 in - ()
Sea Level Pressure  
Sea Level Pressure 29.91 in    
Wind  
Wind Speed 5 mph ()    
Max Wind Speed 14 mph    
Max Gust Speed -    
Visibility 5.2 miles    
Events      
Averages and records for this station are not official NWS values.
T = Trace of Precipitation, MM = Missing Value Source: Averaged Metar Reports

Daily Weather History Graph

Daily Weather History Graph

Search for Another Location

Airport or City:

Trip Planner

Search our weather history database for the weather conditions in past years. The results will help you decide how hot, cold, wet, or windy it might be!

Date:

Astronomy

Apr. 30, 2014 Rise Set
Actual Time 6:47 AM WEST 8:11 PM WEST
Civil Twilight 6:22 AM WEST 8:37 PM WEST
Nautical Twilight 5:51 AM WEST 9:07 PM WEST
Astronomical Twilight 5:19 AM WEST 9:40 PM WEST
Moon 7:40 AM WEST (4/30) 9:34 PM WEST (4/30)
Length of Visible Light 14h 14m
Length of Day
13h 23m
New Moon, 2% of the Moon is Illuminated
Apr 30
New Moon
May 7
First Quarter
May 14
Full
May 21
Last Quarter
May 28
New

Hourly Weather History & Observations

Time (WEST) Temp. Heat Index Dew Point Humidity Pressure Visibility Wind Dir Wind Speed Gust Speed Precip Events Conditions
12:00 AM 71.6 °F - 51.8 °F 50% 29.98 in - NNE 4.6 mph - N/A   Clear
12:30 AM 71.6 °F - 51.8 °F 50% 29.95 in - NNE 5.8 mph - N/A   Clear
1:00 AM 71 °F - 52 °F 40% 29.91 in 6 mi NNE 4.6 mph - -  
1:00 AM 69.8 °F - 51.8 °F 53% 29.95 in - NNE 4.6 mph - N/A   Clear
1:30 AM 69.8 °F - 51.8 °F 53% 29.95 in - Variable 2.3 mph - N/A   Clear
2:00 AM 68.0 °F - 53.6 °F 60% 29.95 in - West 3.5 mph - N/A   Clear
2:30 AM 64.4 °F - 53.6 °F 68% 29.95 in - West 4.6 mph - N/A   Clear
3:00 AM 66.2 °F - 53.6 °F 64% 29.92 in - SW 1.2 mph - N/A   Clear
3:30 AM 64.4 °F - 53.6 °F 68% 29.92 in - SW 5.8 mph - N/A   Clear
4:00 AM 62 °F - 53 °F 63% 29.90 in 6 mi WSW 5.8 mph - -  
4:00 AM 62.6 °F - 53.6 °F 72% 29.92 in - WSW 6.9 mph - N/A   Clear
4:30 AM 60.8 °F - 53.6 °F 77% 29.92 in - WSW 4.6 mph - N/A   Clear
5:00 AM 59.0 °F - 51.8 °F 77% 29.92 in - WSW 4.6 mph - N/A   Clear
5:30 AM 60.8 °F - 53.6 °F 77% 29.92 in - WSW 5.8 mph - N/A   Clear
6:00 AM 60.8 °F - 53.6 °F 77% 29.95 in - SW 4.6 mph - N/A   Clear
6:30 AM 60.8 °F - 53.6 °F 77% 29.95 in - SW 5.8 mph - N/A   Clear
7:00 AM 60 °F - 54 °F 73% 29.92 in 6 mi SW 5.8 mph - -  
7:00 AM 60.8 °F - 53.6 °F 77% 29.95 in - SW 5.8 mph - N/A   Clear
7:30 AM 60.8 °F - 53.6 °F 77% 29.95 in - Variable 2.3 mph - N/A   Clear
8:00 AM 62.6 °F - 53.6 °F 72% 29.95 in - West 2.3 mph - N/A   Clear
8:30 AM 64.4 °F - 51.8 °F 64% 29.95 in - West 3.5 mph - N/A   Clear
9:00 AM 66.2 °F - 53.6 °F 64% 29.95 in - NW 3.5 mph - N/A   Clear
9:30 AM 68.0 °F - 53.6 °F 60% 29.95 in - West 3.5 mph - N/A   Clear
10:00 AM 69 °F - 54 °F 49% 29.91 in 6 mi WSW 3.5 mph - -  
10:00 AM 68.0 °F - 53.6 °F 60% 29.95 in - WSW 3.5 mph - N/A   Clear
10:30 AM 71.6 °F - 53.6 °F 53% 29.95 in - West 3.5 mph - N/A   Clear
11:00 AM 73.4 °F - 55.4 °F 53% 29.95 in - NNW 3.5 mph - N/A   Clear
11:30 AM 77.0 °F - 55.4 °F 47% 29.95 in - Variable 2.3 mph - N/A   Clear
12:00 PM 77.0 °F - 55.4 °F 47% 29.95 in - North 4.6 mph - N/A   Clear
12:30 PM 78.8 °F - 55.4 °F 44% 29.92 in - Variable 2.3 mph - N/A   Clear
1:00 PM 81 °F - 56 °F 32% 29.83 in 6 mi North 4.6 mph - -   Clear
1:00 PM 80.6 °F 80.5 °F 55.4 °F 42% 29.92 in - North 4.6 mph - N/A   Clear
1:30 PM 82.4 °F 82.0 °F 57.2 °F 42% 29.92 in - NNW 5.8 mph - N/A   Clear
2:00 PM 84.2 °F 82.8 °F 53.6 °F 35% 29.89 in 5.6 mi Variable 6.9 mph - N/A   Unknown
2:30 PM 86.0 °F 84.5 °F 55.4 °F 35% 29.89 in 5.0 mi NW 5.8 mph - N/A   Unknown
3:00 PM 86.0 °F 84.2 °F 53.6 °F 33% 29.89 in 5.0 mi NW 5.8 mph - N/A   Unknown
3:30 PM 87.8 °F - 51.8 °F 29% 29.86 in 4.3 mi Variable 6.9 mph - N/A   Unknown
4:00 PM 89 °F - 50 °F 17% 29.77 in 4 mi WNW 4.6 mph - -   Clear
4:00 PM 89.6 °F - 50.0 °F 26% 29.86 in 4.3 mi NW 5.8 mph - N/A   Unknown
4:30 PM 89.6 °F - 48.2 °F 24% 29.86 in 3.7 mi NW 6.9 mph - N/A   Scattered Clouds
5:00 PM 89.6 °F - 48.2 °F 24% 29.86 in 5.0 mi WNW 10.4 mph - N/A   Scattered Clouds
5:30 PM 89.6 °F - 46.4 °F 22% 29.86 in 3.7 mi NW 4.6 mph - N/A   Scattered Clouds
6:00 PM 91.4 °F - 44.6 °F 20% 29.83 in 3.7 mi Variable 3.5 mph - N/A   Scattered Clouds
6:30 PM 91.4 °F - 44.6 °F 20% 29.83 in 3.1 mi Variable 6.9 mph - N/A   Scattered Clouds
7:00 PM 89 °F - 39 °F 9% 29.73 in 4 mi NW 9.2 mph - -   Scattered Clouds
7:00 PM 89.6 °F - 41.0 °F 18% 29.83 in 4.3 mi NW 8.1 mph - N/A   Scattered Clouds
7:30 PM 87.8 °F - 39.2 °F 18% 29.83 in 5.0 mi NNW 10.4 mph - N/A   Scattered Clouds
8:00 PM 84.2 °F - 51.8 °F 33% 29.86 in 5.6 mi NNW 13.8 mph - N/A   Scattered Clouds
8:30 PM 80.6 °F - 51.8 °F 37% 29.86 in 6.2 mi North 13.8 mph - N/A   Scattered Clouds
9:00 PM 78.8 °F - 53.6 °F 42% 29.89 in 6.2 mi North 12.7 mph - N/A   Scattered Clouds
9:30 PM 77.0 °F - 53.6 °F 44% 29.92 in 6.2 mi North 10.4 mph - N/A   Scattered Clouds
10:00 PM 76 °F - 53 °F 34% 29.86 in 6 mi NNE 6.9 mph - -   Partly Cloudy
10:00 PM 77.0 °F - 53.6 °F 44% 29.92 in 6.2 mi NNE 8.1 mph - N/A   Scattered Clouds
10:30 PM 77.0 °F - 55.4 °F 47% 29.95 in 6.2 mi Variable 2.3 mph - N/A   Partly Cloudy
11:00 PM 73.4 °F - 53.6 °F 50% 29.95 in 6.2 mi WSW 5.8 mph - N/A   Partly Cloudy
11:30 PM 71.6 °F - 55.4 °F 57% 29.95 in 6.2 mi West 5.8 mph - N/A   Partly Cloudy